Timestamp,Temp,Chill,HIndex,Humid,Dewpt,Wind,HiWind,WindDir,Rain,RainRate,Barom,Solar,ET,UV,InsideTemp,InsideHumid
2015-07-02 00:00:00,72.2,72.2,72.2,72,62.6587483021637,0,2,0,0,0,29.593,0,0.002,0,80.5,53
2015-07-02 00:05:00,72.1,72.1,72.1,73,62.9554092549985,3,10,292.5,0,0,29.594,0,0,0,80.5,54
2015-07-02 00:10:00,71.7,71.7,71.7,75,63.3409125875239,3,8,315,0,0,29.598,0,0,0,80.5,55
2015-07-02 00:15:00,71.1,71.1,71.1,76,63.1395010685219,4,10,292.5,0,0,29.604,0,0,0,80.3,55
2015-07-02 00:20:00,70.6,70.6,70.6,77,63.0286257357303,5,13,270,0,0,29.608,0,0,0,80.1,55
2015-07-02 00:25:00,70.1,70.1,70.1,77,62.5447171462564,5,10,247.5,0,0,29.607,0,0,0,79.9,55
2015-07-02 00:30:00,69.5,69.5,69.5,78,62.3303196661121,5,11,315,0,0,29.607,0,0,0,79.7,55
2015-07-02 00:35:00,69,69,69,78,61.8455996980397,6,12,315,0,0,29.604,0,0,0,79.5,56
2015-07-02 00:40:00,68.6,68.6,68.6,79,61.8186573998593,5,11,225,0,0,29.611,0,0,0,79.2,55
2015-07-02 00:45:00,68.3,68.3,68.3,79,61.5273509931123,5,10,292.5,0,0,29.613,0,0,0,79.2,55
2015-07-02 00:50:00,68,68,68,80,61.5919961085503,5,11,292.5,0,0,29.61,0,0,0,79.2,55
2015-07-02 00:55:00,67.9,67.9,67.9,80,61.4947396390821,4,12,247.5,0,0,29.615,0,0,0,79,55
2015-07-02 01:00:00,67.7,67.7,67.7,80,61.3002249622545,4,10,247.5,0,0,29.615,0,0.002,0,78.8,55
2015-07-02 01:05:00,67.6,67.6,67.6,80,61.2029667548848,4,10,292.5,0,0,29.613,0,0,0,78.6,55
2015-07-02 01:10:00,67.5,67.5,67.5,80,61.1057079682043,4,11,270,0,0,29.611,0,0,0,78.4,55
2015-07-02 01:15:00,67.4,67.4,67.4,80,61.0084486022078,5,11,270,0,0,29.61,0,0,0,78.2,56
2015-07-02 01:20:00,67.3,67.3,67.3,80,60.9111886568901,2,7,292.5,0,0,29.608,0,0,0,78.2,56
2015-07-02 01:25:00,67.2,67.2,67.2,80,60.8139281322461,3,9,225,0,0,29.61,0,0,0,77.9,56
2015-07-02 01:30:00,67.1,67.1,67.1,81,61.0674000002312,3,7,270,0,0,29.612,0,0,0,77.7,56
2015-07-02 01:35:00,67,67,67,80,60.6194053449583,3,10,270,0,0,29.615,0,0,0,77.7,56
2015-07-02 01:40:00,66.8,66.8,66.8,81,60.7751648941137,3,7,270,0,0,29.617,0,0,0,77.7,56
2015-07-02 01:45:00,66.7,66.7,66.7,81,60.67775209536,2,7,247.5,0,0,29.618,0,0,0,77.7,56
2015-07-02 01:50:00,66.6,66.6,66.6,81,60.5803387482413,2,8,292.5,0,0,29.618,0,0,0,77.7,56
2015-07-02 01:55:00,66.4,66.4,66.4,81,60.3855104088905,4,8,270,0,0,29.624,0,0,0,77.5,56
2015-07-02 02:00:00,66.3,66.3,66.3,82,60.6338712467893,4,10,247.5,0,0,29.629,0,0.001,0,77.3,57
2015-07-02 02:05:00,66.2,66.2,66.2,82,60.5363079773705,4,11,247.5,0,0,29.629,0,0,0,77.2,57
2015-07-02 02:10:00,66,66,66,82,60.3411798856355,5,13,315,0,0,29.635,0,0,0,77,57
2015-07-02 02:15:00,65.9,65.9,65.9,83,60.5851297904627,6,13,225,0,0,29.641,0,0,0,76.8,58
2015-07-02 02:20:00,65.7,65.7,65.7,83,60.3897063309982,5,12,247.5,0,0,29.64,0,0,0,76.4,58
2015-07-02 02:25:00,65.5,65.5,65.5,83,60.1942809230309,3,13,247.5,0,0,29.643,0,0,0,76.3,59
2015-07-02 02:30:00,65.4,65.4,65.4,83,60.0965674883495,4,10,247.5,0,0,29.647,0,0,0,75.9,59
2015-07-02 02:35:00,65.3,65.3,65.3,84,60.3359129911462,5,10,315,0,0,29.641,0,0,0,75.6,59
2015-07-02 02:40:00,65.2,65.2,65.2,84,60.2380540453284,6,12,247.5,0,0,29.641,0,0,0,75.4,59
2015-07-02 02:45:00,65,65,65,84,60.0423347831553,6,13,270,0,0,29.646,0,0,0,75.2,60
2015-07-02 02:50:00,64.8,64.8,64.8,84,59.8466136935774,6,13,315,0,0,29.646,0,0,0,75,60
2015-07-02 02:55:00,64.7,64.7,64.7,84,59.7487524635037,6,12,292.5,0,0,29.646,0,0,0,75,60
2015-07-02 03:00:00,64.5,64.5,64.5,85,59.8854447885585,4,10,225,0,0,29.645,0,0.001,0,75,60
2015-07-02 03:05:00,64.5,64.5,64.5,85,59.8854447885585,5,8,292.5,0,0,29.649,0,0,0,75,60
2015-07-02 03:10:00,64.4,64.4,64.4,85,59.7874392869229,4,11,247.5,0,0,29.649,0,0,0,74.9,60
2015-07-02 03:15:00,64.3,64.3,64.3,84,59.3573029745688,4,12,225,0,0,29.651,0,0,0,74.7,60
2015-07-02 03:20:00,64.1,64.1,64.1,84,59.1615754888727,5,10,247.5,0,0,29.645,0,0,0,74.5,60
2015-07-02 03:25:00,63.9,63.9,63.9,84,58.9658461756566,3,11,270,0,0,29.648,0,0,0,74.5,59
2015-07-02 03:30:00,63.7,63.7,63.7,84,58.770115034895,6,12,225,0,0,29.651,0,0,0,74.3,59
2015-07-02 03:35:00,63.6,63.6,63.6,84,58.6722487791766,4,10,225,0,0,29.651,0,0,0,74.2,59
2015-07-02 03:40:00,63.5,63.5,63.5,84,58.5743820665623,3,11,225,0,0,29.654,0,0,0,74.2,59
2015-07-02 03:45:00,63.4,63.4,63.4,84,58.4765148970487,3,9,270,0,0,29.656,2,0,0,74.3,59
2015-07-02 03:50:00,63.3,63.3,63.3,84,58.3786472706328,3,9,225,0,0,29.654,8,0,0,74.3,59
2015-07-02 03:55:00,63.2,63.2,63.2,84,58.2807791873112,2,8,337.5,0,0,29.655,13,0,0,74.3,58
2015-07-02 04:00:00,63.2,63.2,63.2,84,58.2807791873112,4,8,315,0,0,29.657,18,0.001,0,74.3,58
2015-07-02 04:05:00,63.1,63.1,63.1,84,58.182910647081,4,12,337.5,0,0,29.657,19,0,0,74.5,58
2015-07-02 04:10:00,63,63,63,84,58.0850416499387,4,9,270,0,0,29.661,22,0,0,74.3,58
2015-07-02 04:15:00,62.9,62.9,62.9,84,57.9871721958812,4,12,270,0,0,29.665,28,0,0,74.3,58
2015-07-02 04:20:00,62.9,62.9,62.9,84,57.9871721958812,5,10,225,0,0,29.673,32,0,0,74.3,58
2015-07-02 04:25:00,62.9,62.9,62.9,84,57.9871721958812,2,8,225,0,0,29.678,39,0,0,74.3,58
2015-07-02 04:30:00,63,63,63,84,58.0850416499387,3,9,315,0,0,29.68,25,0,0,74.2,58
2015-07-02 04:35:00,63,63,63,84,58.0850416499387,3,10,292.5,0,0,29.678,24,0,0,74.2,58
2015-07-02 04:40:00,63.1,63.1,63.1,84,58.182910647081,4,10,270,0,0,29.681,22,0,0,74.2,58
2015-07-02 04:45:00,63,63,63,84,58.0850416499387,5,10,315,0,0,29.68,26,0,0,74.2,57
2015-07-02 04:50:00,63,63,63,83,57.7512989066187,4,9,315,0,0,29.688,28,0,0,74.2,57
2015-07-02 04:55:00,62.9,62.9,62.9,83,57.6535732924279,4,10,292.5,0,0,29.689,27,0,0,74,57
2015-07-02 05:00:00,62.9,62.9,62.9,83,57.6535732924279,3,7,247.5,0,0,29.693,26,0.001,0,74,57
2015-07-02 05:05:00,62.9,62.9,62.9,83,57.6535732924279,2,6,337.5,0,0,29.691,35,0,0,74.2,57
2015-07-02 05:10:00,63,63,63,83,57.7512989066187,2,9,292.5,0,0,29.693,49,0,0,74.3,57
2015-07-02 05:15:00,63,63,63,83,57.7512989066187,3,7,270,0,0,29.699,78,0,0,74.5,57
2015-07-02 05:20:00,63.1,63.1,63.1,83,57.8490240335855,2,8,247.5,0,0,29.7,103,0,0,74.5,57
2015-07-02 05:25:00,63.1,63.1,63.1,83,57.8490240335855,2,5,270,0,0,29.706,156,0,0,74.5,56
2015-07-02 05:30:00,63.3,63.3,63.3,83,58.0444728258613,2,6,315,0,0,29.705,183,0,0,74.7,56
2015-07-02 05:35:00,63.6,63.6,63.6,82,57.9994812719101,4,9,337.5,0,0,29.709,200,0,0.2,75,56
2015-07-02 05:40:00,64.3,64.3,64.3,81,58.3396804051236,2,5,292.5,0,0,29.711,207,0,0.3,75,55
2015-07-02 05:45:00,64.7,64.7,64.7,80,58.3822267199398,4,8,270,0,0,29.71,220,0,0.4,75.2,55
2015-07-02 05:50:00,65.1,65.1,65.1,79,58.4197407430308,2,8,292.5,0,0,29.703,243,0,0.5,75.2,55
2015-07-02 05:55:00,65.2,65.2,65.2,78,58.1612034274185,3,8,270,0,0,29.712,254,0,0.5,75.4,55
2015-07-02 06:00:00,65.5,65.5,65.5,78,58.4521105266217,3,8,337.5,0,0,29.714,230,0.004,0.5,75.6,55
2015-07-02 06:05:00,66,66,66,77,58.576031454142,2,6,292.5,0,0,29.713,240,0,0.6,75.6,55
2015-07-02 06:10:00,66.3,66.3,66.3,76,58.5009492328874,2,8,225,0,0,29.712,255,0,0.5,75.4,55
2015-07-02 06:15:00,66.1,66.1,66.1,75,57.9382006008365,4,11,292.5,0,0,29.719,171,0,0.3,75.4,54
2015-07-02 06:20:00,65.4,65.4,65.4,76,57.6310397423338,4,10,315,0,0,29.72,86,0,0.1,75.4,54
2015-07-02 06:25:00,64.9,64.9,64.9,77,57.5110694180246,6,13,225,0,0,29.721,274,0,0.7,75.4,54
2015-07-02 06:30:00,64.8,64.8,64.8,77,57.4142506439797,5,13,270,0,0,29.727,246,0,0.8,75.2,54
2015-07-02 06:35:00,65.2,65.2,65.2,77,57.801521696558,4,12,225,0,0,29.735,343,0,0.9,75,54
2015-07-02 06:40:00,65.3,65.3,65.3,76,57.5343796028433,3,10,247.5,0,0,29.738,170,0,0.7,75,54
2015-07-02 06:45:00,65,65,65,76,57.2443949488557,5,12,270,0,0,29.738,168,0,0.8,75,54
2015-07-02 06:50:00,64.9,64.9,64.9,77,57.5110694180246,3,7,247.5,0,0,29.74,178,0,0.9,75.2,54
2015-07-02 06:55:00,65.2,65.2,65.2,77,57.801521696558,3,7,247.5,0,0,29.741,216,0,1,75.4,54
2015-07-02 07:00:00,65.6,65.6,65.6,76,57.8243579036034,2,5,292.5,0,0,29.746,161,0.005,0.8,75.4,54
2015-07-02 07:05:00,65.9,65.9,65.9,76,58.1143298513448,1,6,247.5,0,0,29.745,173,0,0.8,75.6,54
2015-07-02 07:10:00,66.2,66.2,66.2,75,58.034697894334,2,8,337.5,0,0,29.744,148,0,0.8,75.7,54
2015-07-02 07:15:00,66.1,66.1,66.1,75,57.9382006008365,3,7,337.5,0,0,29.743,146,0,0.9,75.9,53
2015-07-02 07:20:00,66.1,66.1,66.1,75,57.9382006008365,3,8,315,0,0,29.744,126,0,0.9,76.1,53
2015-07-02 07:25:00,66,66,66,75,57.8417025692241,3,9,270,0,0,29.748,133,0,0.9,76.3,53
2015-07-02 07:30:00,65.9,65.9,65.9,75,57.7452037994885,4,10,292.5,0,0,29.745,145,0,0.9,76.1,53
2015-07-02 07:35:00,66,66,66,75,57.8417025692241,3,7,337.5,0,0,29.746,159,0,0.9,76.3,53
2015-07-02 07:40:00,66.1,66.1,66.1,76,58.3076409538207,3,8,337.5,0,0,29.745,193,0,0.9,76.3,53
2015-07-02 07:45:00,66.6,66.6,66.6,75,58.4206796873444,4,10,337.5,0,0,29.743,449,0,1.9,76.3,53
2015-07-02 07:50:00,67.4,67.4,67.4,74,58.8167526311767,5,9,315,0,0,29.735,647,0,2.4,76.4,53
2015-07-02 07:55:00,67.9,67.9,67.9,73,58.9172448878048,7,12,315,0,0,29.737,563,0,2.5,76.6,53
2015-07-02 08:00:00,68,68,68,72,58.6274969576949,7,12,315,0,0,29.732,533,0.007,2.5,76.6,53
2015-07-02 08:05:00,68,68,68,73,59.013408122618,5,9,315,0,0,29.733,507,0,2.6,76.6,53
2015-07-02 08:10:00,68.2,68.2,68.2,72,58.8194947545365,4,9,270,0,0,29.733,522,0,2.7,76.4,53
2015-07-02 08:15:00,69,69,69,71,59.1951605960812,3,9,247.5,0,0,29.737,540,0,2.8,76.1,54
2015-07-02 08:20:00,69.1,69.1,69.1,70,58.8936521567387,6,11,270,0,0,29.737,563,0,3,75.7,54
2015-07-02 08:25:00,68.9,68.9,68.9,71,59.099334079216,5,12,315,0,0,29.736,560,0,3,75.6,55
2015-07-02 08:30:00,69.4,69.4,69.4,71,59.5784579678539,5,10,292.5,0,0,29.742,599,0,3.2,75.4,55
2015-07-02 08:35:00,70.4,70.4,70.4,69,59.7325840394884,4,9,315,0,0,29.744,544,0,2.9,75.4,55
2015-07-02 08:40:00,70.8,70.8,70.8,68,59.7040775106143,4,11,337.5,0,0,29.743,613,0,3.3,75.6,55
2015-07-02 08:45:00,70.4,70.4,70.4,69,59.7325840394884,5,9,247.5,0,0,29.746,350,0,2.8,75.7,55
2015-07-02 08:50:00,70,70,70,70,59.7545373987028,5,10,247.5,0,0,29.75,268,0,2.5,75.7,55
2015-07-02 08:55:00,70,70,70,69,59.3506701183082,5,9,337.5,0,0,29.748,608,0,3.5,75.9,55
2015-07-02 09:00:00,70.5,70.5,70.5,69,59.8280601773013,4,10,315,0,0,29.745,585,0.013,3.3,76.1,54
2015-07-02 09:05:00,70.5,70.5,70.5,68,59.4181699219652,5,10,337.5,0,0,29.731,662,0,3.7,76.6,54
2015-07-02 09:10:00,71,71,71,68,59.8946777138972,6,15,315,0,0,29.727,686,0,4,77,53
2015-07-02 09:15:00,71.4,71.4,71.4,66,59.4368272372213,4,15,292.5,0,0,29.748,736,0,4.4,77.3,53
2015-07-02 09:20:00,71.9,71.9,71.9,66,59.9115391657481,4,9,315,0,0,29.75,826,0,3.6,77.5,53
2015-07-02 09:25:00,71,71,71,67,59.4785987611226,7,13,337.5,0,0,29.741,606,0,3.7,77.7,52
2015-07-02 09:30:00,71.1,71.1,71.1,68,59.9899763588383,3,9,0,0,0,29.755,353,0,2.2,77.9,52
2015-07-02 09:35:00,70.7,70.7,70.7,67,59.1932186229053,3,7,315,0,0,29.77,250,0,1.5,78,52
2015-07-02 09:40:00,70.6,70.6,70.6,68,59.5134734226979,2,6,337.5,0,0,29.766,317,0,2,78.4,51
2015-07-02 09:45:00,71.4,71.4,71.4,66,59.4368272372213,1,5,337.5,0,0,29.762,797,0,4,78.6,51
2015-07-02 09:50:00,72.1,72.1,72.1,66,60.1014166543202,1,4,337.5,0,0,29.765,691,0,4.3,78.8,51
2015-07-02 09:55:00,72.6,72.6,72.6,64,59.7101435693103,4,8,337.5,0,0,29.756,690,0,3.9,79,50
2015-07-02 10:00:00,72.4,72.4,72.4,65,59.9565279432915,5,11,337.5,0,0,29.752,431,0.014,3.1,79.2,50
2015-07-02 10:05:00,72,72,72,65,59.577495953188,2,6,337.5,0,0,29.761,321,0,2.6,79.3,50
2015-07-02 10:10:00,72,72,72,65,59.577495953188,3,7,292.5,0,0,29.764,311,0,2.2,79.5,50
2015-07-02 10:15:00,71.7,71.7,71.7,66,59.7216575156223,3,8,315,0,0,29.758,392,0,2.9,79.7,49
2015-07-02 10:20:00,72.7,72.7,72.7,64,59.8047156468177,2,6,315,0,0,29.759,415,0,2.7,80.1,49
2015-07-02 10:25:00,72.6,72.6,72.6,65,60.1460374853732,3,6,315,0,0,29.764,300,0,2.4,80.3,49
2015-07-02 10:30:00,72.5,72.5,72.5,64,59.6155703808426,3,7,292.5,0,0,29.762,269,0,2.2,80.3,49
2015-07-02 10:35:00,72,72,72,65,59.577495953188,1,4,225,0,0,29.762,287,0,2.1,80.5,49
2015-07-02 10:40:00,72.1,72.1,72.1,65,59.6722555640022,1,4,202.5,0,0,29.781,258,0,1.7,80.5,48
2015-07-02 10:45:00,72.6,72.6,72.6,65,60.1460374853732,3,9,202.5,0,0,29.787,233,0,1.6,80.3,48
2015-07-02 10:50:00,72.9,72.9,72.9,64,59.9938564690301,6,16,202.5,0,0,29.793,260,0,1.8,80.3,48
2015-07-02 10:55:00,72.5,72.5,72.5,65,60.0512832520646,5,9,157.5,0,0,29.797,291,0,2,80.3,49
2015-07-02 11:00:00,72.7,72.7,72.7,64,59.8047156468177,5,10,202.5,0,0,29.796,352,0.008,2.6,80.5,49
2015-07-02 11:05:00,72.6,72.6,72.6,64,59.7101435693103,6,12,202.5,0,0,29.798,347,0,2.5,80.6,49
2015-07-02 11:10:00,72.4,72.4,72.4,64,59.5209960813951,6,13,225,0,0,29.797,335,0,2.4,80.8,48
2015-07-02 11:15:00,72.6,72.6,72.6,65,60.1460374853732,3,9,247.5,0,0,29.779,293,0,2,80.8,48
2015-07-02 11:20:00,72.3,72.3,72.3,64,59.4264206709482,3,9,247.5,0,0,29.772,306,0,2.2,80.6,48
2015-07-02 11:25:00,72.4,72.4,72.4,64,59.5209960813951,4,10,202.5,0,0,29.794,302,0,2.1,80.6,48
2015-07-02 11:30:00,72.4,72.4,72.4,64,59.5209960813951,3,10,225,0,0,29.797,314,0,2.2,80.6,48
2015-07-02 11:35:00,72.7,72.7,72.7,63,59.3626258762828,3,9,202.5,0,0,29.791,318,0,2.3,80.8,48
2015-07-02 11:40:00,72.1,72.1,72.1,64,59.2372665169777,5,10,202.5,0,0,29.781,292,0,2,80.8,47
2015-07-02 11:45:00,72.1,72.1,72.1,63,58.7962766159388,4,11,202.5,0,0,29.785,279,0,1.9,80.8,48
2015-07-02 11:50:00,71.8,71.8,71.8,64,58.9535269530369,3,8,202.5,0,0,29.797,297,0,2.1,80.6,46
2015-07-02 11:55:00,71.9,71.9,71.9,64,59.0481079187746,3,7,202.5,0,0,29.792,281,0,2,80.6,47
2015-07-02 12:00:00,71.6,71.6,71.6,64,58.7643616881912,3,7,315,0,0,29.774,279,0.009,1.9,80.5,47
2015-07-02 12:05:00,71.4,71.4,71.4,65,59.0089157009854,4,12,270,0,0,29.749,273,0,1.9,80.1,47
2015-07-02 12:10:00,71.6,71.6,71.6,66,59.626715129934,4,10,157.5,0,0,29.757,272,0,1.9,79.9,48
2015-07-02 12:15:00,71.6,71.6,71.6,66,59.626715129934,4,9,247.5,0,0,29.75,273,0,1.8,79.9,48
2015-07-02 12:20:00,71.7,71.7,71.7,66,59.7216575156223,3,9,337.5,0,0,29.763,306,0,2.2,79.7,48
2015-07-02 12:25:00,71.5,71.5,71.5,65,59.1036817654104,5,11,337.5,0,0,29.759,287,0,2,79,49
2015-07-02 12:30:00,71.4,71.4,71.4,64,58.5751919787212,3,7,315,0,0,29.764,272,0,1.9,79.2,49
2015-07-02 12:35:00,71.4,71.4,71.4,64,58.5751919787212,2,7,135,0,0,29.79,282,0,2,79.2,49
2015-07-02 12:40:00,71.7,71.7,71.7,63,58.4186875041742,2,6,135,0,0,29.794,271,0,1.9,79.3,49
2015-07-02 12:45:00,72.6,72.6,72.6,62,58.8201371558014,2,7,202.5,0,0,29.775,444,0,4.2,79.7,48
2015-07-02 12:50:00,73,73,73,62,59.19694160312,1,6,292.5,0,0,29.783,417,0,3.4,80.1,48
2015-07-02 12:55:00,73.8,73.8,73.8,61,59.4937488622572,3,9,247.5,0,0,29.784,758,0,6.3,80.1,47
2015-07-02 13:00:00,74.8,74.8,74.8,60,59.9684226291388,3,8,202.5,0,0,29.791,953,0.011,6.9,80.1,48
2015-07-02 13:05:00,74.9,74.9,74.9,59,59.5899050753556,5,11,180,0,0,29.789,902,0,6.7,80.3,48
2015-07-02 13:10:00,75.2,75.2,75.2,59,59.8707033127742,4,9,225,0,0,29.786,799,0,6.4,80.5,47
2015-07-02 13:15:00,75.8,75.8,75.8,58,59.9511057827492,1,5,225,0,0,29.777,463,0,4.9,80.6,47
2015-07-02 13:20:00,75.3,75.3,75.3,59,59.9643001388221,1,5,225,0,0,29.779,288,0,2.9,80.5,47
2015-07-02 13:25:00,74.9,74.9,74.9,59,59.5899050753556,1,4,225,0,0,29.772,687,0,4.3,80.5,47
2015-07-02 13:30:00,76.5,76.5,76.5,56,59.6174503744552,2,7,157.5,0,0,29.772,790,0,5.6,80.3,48
2015-07-02 13:35:00,76.3,76.3,76.3,55,58.9265691981841,3,8,202.5,0,0,29.768,629,0,4.7,80.5,47
2015-07-02 13:40:00,75.9,75.9,75.9,55,58.5554525763367,4,10,202.5,0,0,29.771,607,0,4.5,80.3,47
2015-07-02 13:45:00,75.1,75.1,75.1,57,58.8102384374248,1,6,202.5,0,0,29.771,626,0,4.5,80.3,46
2015-07-02 13:50:00,75.3,75.3,75.3,58,59.4841269594639,4,8,180,0,0,29.776,452,0,4.1,80.5,47
2015-07-02 13:55:00,76.2,76.2,76.2,56,59.3385053321878,1,5,180,0,0,29.781,447,0,3.2,80.6,47
2015-07-02 14:00:00,75.4,75.4,75.4,56,58.5945899694103,1,5,180,0,0,29.781,294,0.015,2,80.8,47
2015-07-02 14:05:00,74.9,74.9,74.9,58,59.1105199457127,2,8,202.5,0,0,29.775,439,0,2.9,81,46
2015-07-02 14:10:00,75.7,75.7,75.7,58,59.8577126796208,2,6,202.5,0,0,29.772,637,0,3.9,80.8,46
2015-07-02 14:15:00,76,76,76,56,59.1525349350034,3,8,270,0,0,29.767,419,0,3.3,81,46
2015-07-02 14:20:00,75.4,75.4,75.4,56,58.5945899694103,4,8,202.5,0,0,29.764,633,0,3.8,81.2,46
2015-07-02 14:25:00,76,76,76,56,59.1525349350034,4,10,157.5,0,0,29.769,551,0,3.5,81.4,46
2015-07-02 14:30:00,75.3,75.3,75.3,57,58.9966396038266,3,7,135,0,0,29.764,465,0,2.9,81.6,46
2015-07-02 14:35:00,75.8,75.8,75.8,57,59.4626185640118,1,5,112.5,0,0,29.767,342,0,2.2,81.8,45
2015-07-02 14:40:00,75.4,75.4,75.4,57,59.0898381336113,2,6,180,0,0,29.768,336,0,2.1,81.8,46
2015-07-02 14:45:00,75.7,75.7,75.7,57,59.3694255096621,2,8,180,0,0,29.771,302,0,1.8,82,45
2015-07-02 14:50:00,74.8,74.8,74.8,57,58.5306264202883,4,9,180,0,0,29.77,242,0,1.2,81.8,45
2015-07-02 14:55:00,74.4,74.4,74.4,58,58.6434812316332,2,6,225,0,0,29.771,268,0,1.5,81.8,45
2015-07-02 15:00:00,75,75,75,58,59.2039236955245,2,9,180,0,0,29.769,313,0.011,1.8,81.8,45
2015-07-02 15:05:00,74,74,74,60,59.2180076890687,4,9,225,0,0,29.774,303,0,1.7,82,45
2015-07-02 15:10:00,74.8,74.8,74.8,59,59.4963030763684,1,4,225,0,0,29.776,197,0,0.9,82,44
2015-07-02 15:15:00,74.6,74.6,74.6,59,59.3090951984616,3,7,225,0,0,29.781,159,0,0.5,81.6,45
2015-07-02 15:20:00,74.2,74.2,74.2,60,59.4056189608159,2,7,202.5,0,0,29.776,115,0,0,81,46
2015-07-02 15:25:00,73.9,73.9,73.9,60,59.1242001688991,3,10,202.5,0,0,29.785,87,0,0,80.8,46
2015-07-02 15:30:00,73.5,73.5,73.5,61,59.211741536488,3,12,202.5,0,0,29.783,106,0,0,80.6,46
2015-07-02 15:35:00,73.1,73.1,73.1,61,58.8357146971423,4,9,247.5,0,0,29.786,94,0,0,80.5,46
2015-07-02 15:40:00,73,73,73,62,59.19694160312,2,8,202.5,0,0,29.785,81,0,0,80.1,47
2015-07-02 15:45:00,72.7,72.7,72.7,62,58.9143400421246,3,12,225,0,0,29.786,89,0,0,79.7,47
2015-07-02 15:50:00,72.7,72.7,72.7,62,58.9143400421246,2,6,225,0,0,29.79,65,0,0,79.5,48
2015-07-02 15:55:00,72.6,72.6,72.6,62,58.8201371558014,3,10,225,0,0,29.788,53,0,0,79.2,48
2015-07-02 16:00:00,72.3,72.3,72.3,63,58.9850642901933,3,8,225,0,0,29.789,39,0.004,0,79,48
2015-07-02 16:05:00,71.8,71.8,71.8,65,59.3879735048733,5,15,202.5,0,0,29.796,26,0,0,78.8,49
2015-07-02 16:10:00,70,70,70,67,58.5272964326947,9,16,270,0,0,29.806,18,0,0,78,51
2015-07-02 16:15:00,67.7,67.7,67.7,73,58.7249160083454,6,16,270,0.00393700787,0,29.815,37,0,0,77,55
2015-07-02 16:20:00,65.5,65.5,65.5,77,58.0919679098371,6,19,292.5,0.00787401574,0.14566929119,29.82,52,0,0,75.6,57
2015-07-02 16:25:00,64,64,64,80,57.7012854283466,7,14,270,0.00393700787,0.10629921249,29.82,38,0,0,74.2,59
2015-07-02 16:30:00,62.9,62.9,62.9,82,57.3164296708413,7,20,225,0,0.02362204722,29.828,44,0,0,72.8,60
2015-07-02 16:35:00,62.3,62.3,62.3,84,57.3999458761385,6,12,270,0.00393700787,0.02362204722,29.832,38,0,0,71.8,63
2015-07-02 16:40:00,61.8,61.8,61.8,85,57.2391464319913,5,11,292.5,0,0.02362204722,29.833,43,0,0,71.1,64
2015-07-02 16:45:00,61,61,61,85,56.4549982713848,6,15,270,0,0.01574803148,29.838,60,0,0,70.9,63
2015-07-02 16:50:00,60.6,60.6,60.6,85,56.0629139458696,8,20,315,0,0,29.837,63,0,0,70.4,62
2015-07-02 16:55:00,60.4,60.4,60.4,86,56.1900959759454,6,15,315,0,0,29.848,56,0,0.1,69.7,64
2015-07-02 17:00:00,60.3,60.3,60.3,86,56.0919326606376,6,14,247.5,0,0,29.846,44,0.002,0,69.4,63
2015-07-02 17:05:00,60.1,60.1,60.1,86,55.8956048389159,7,14,247.5,0,0,29.851,38,0,0,69.9,63
2015-07-02 17:10:00,60,60,60,86,55.797440332497,3,11,247.5,0,0,29.851,24,0,0,70.7,62
2015-07-02 17:15:00,59.9,59.9,59.9,86,55.6992754290364,4,9,292.5,0.00393700787,0,29.852,43,0,0,71.6,61
2015-07-02 17:20:00,59.6,59.6,59.6,86,55.4047783363792,5,12,270,0,0,29.859,55,0,0,72.3,60
2015-07-02 17:25:00,59.5,59.5,59.5,86,55.3066118447271,4,10,270,0,0,29.854,69,0,0,72.8,59
2015-07-02 17:30:00,59.3,59.3,59.3,86,55.1102776702587,4,12,247.5,0,0,29.854,76,0,0,73.3,58
2015-07-02 17:35:00,59.1,59.1,59.1,86,54.9139419075556,4,10,270,0,0,29.855,64,0,0,73.8,58
2015-07-02 17:40:00,59,59,59,86,54.81577343061,5,13,202.5,0,0,29.857,70,0,0,74.3,57
2015-07-02 17:45:00,59,59,59,86,54.81577343061,4,10,292.5,0,0,29.853,61,0,0,74.7,56
2015-07-02 17:50:00,59,59,59,85,54.4945083382321,4,10,225,0,0,29.853,80,0,0,75,55
2015-07-02 17:55:00,59,59,59,85,54.4945083382321,5,12,292.5,0,0,29.846,70,0,0,75.4,55
2015-07-02 18:00:00,59,59,59,85,54.4945083382321,6,14,315,0,0,29.852,31,0.002,0,75.6,54
2015-07-02 18:05:00,59,59,59,84,54.1699070596864,6,14,315,0,0,29.848,15,0,0,75.9,54
2015-07-02 18:10:00,59,59,59,84,54.1699070596864,4,14,225,0,0,29.853,16,0,0,75.9,53
2015-07-02 18:15:00,59,59,59,84,54.1699070596864,6,16,315,0,0,29.853,20,0,0,76.1,53
2015-07-02 18:20:00,59,59,59,83,53.841894265342,5,14,315,0,0,29.848,12,0,0,76.3,52
2015-07-02 18:25:00,59,59,59,83,53.841894265342,5,11,247.5,0,0,29.852,10,0,0,76.4,52
2015-07-02 18:30:00,59,59,59,83,53.841894265342,4,9,292.5,0,0,29.853,11,0,0,76.4,52
2015-07-02 18:35:00,58.8,58.8,58.8,83,53.6464035656824,3,10,247.5,0.00393700787,0,29.854,11,0,0,76.6,52
2015-07-02 18:40:00,58.6,58.6,58.6,83,53.4509109165141,4,9,315,0,0,29.856,14,0,0,76.6,51
2015-07-02 18:45:00,58.6,58.6,58.6,84,53.7783533842399,2,10,270,0,0,29.856,21,0,0,76.8,51
2015-07-02 18:50:00,58.5,58.5,58.5,84,53.6804638227462,4,10,270,0,0,29.854,27,0,0,76.8,51
2015-07-02 18:55:00,58.3,58.3,58.3,84,53.4846833285782,5,12,315,0,0,29.849,24,0,0,77,51
2015-07-02 19:00:00,58.2,58.2,58.2,83,53.059919769535,5,12,270,0,0,29.853,26,0.001,0,77,51
2015-07-02 19:05:00,58.1,58.1,58.1,83,52.9621707643017,2,7,225,0,0,29.859,26,0,0,77.2,50
2015-07-02 19:10:00,58.1,58.1,58.1,83,52.9621707643017,2,7,270,0,0,29.861,28,0,0,77.2,50
2015-07-02 19:15:00,58.1,58.1,58.1,83,52.9621707643017,1,5,247.5,0,0,29.862,29,0,0,77.3,50
2015-07-02 19:20:00,58.1,58.1,58.1,84,53.2889010061477,2,7,225,0,0,29.867,22,0,0,77.3,50
2015-07-02 19:25:00,58,58,58,83,52.8644212716658,3,9,225,0,0,29.872,18,0,0,77.3,50
2015-07-02 19:30:00,57.9,57.9,57.9,83,52.7666712916235,3,10,247.5,0,0,29.872,20,0,0,77.5,50
2015-07-02 19:35:00,57.9,57.9,57.9,82,52.4367517609316,3,8,202.5,0,0,29.872,23,0,0,77.5,49
2015-07-02 19:40:00,57.8,57.8,57.8,82,52.3391449961343,3,9,225,0,0,29.874,28,0,0,77.5,49
2015-07-02 19:45:00,57.8,57.8,57.8,82,52.3391449961343,2,8,292.5,0,0,29.878,50,0,0,77.7,49
2015-07-02 19:50:00,57.8,57.8,57.8,82,52.3391449961343,2,8,337.5,0,0,29.882,31,0,0,77.9,49
2015-07-02 19:55:00,57.8,57.8,57.8,82,52.3391449961343,4,9,247.5,0,0,29.882,31,0,0,77.9,49
2015-07-02 20:00:00,57.8,57.8,57.8,82,52.3391449961343,1,7,225,0,0,29.887,29,0.001,0,77.9,48
2015-07-02 20:05:00,57.8,57.8,57.8,82,52.3391449961343,3,8,247.5,0,0,29.89,23,0,0,77.9,48
2015-07-02 20:10:00,57.8,57.8,57.8,82,52.3391449961343,2,6,247.5,0,0,29.893,19,0,0,78,48
2015-07-02 20:15:00,57.8,57.8,57.8,82,52.3391449961343,1,7,225,0,0,29.896,18,0,0,78,48
2015-07-02 20:20:00,57.8,57.8,57.8,82,52.3391449961343,2,6,315,0,0,29.898,14,0,0,78,48
2015-07-02 20:25:00,57.7,57.7,57.7,81,51.9083540902326,4,9,247.5,0,0,29.899,12,0,0,78,48
2015-07-02 20:30:00,57.6,57.6,57.6,80,51.4742196354345,2,7,315,0,0,29.9,9,0,0,78,48
2015-07-02 20:35:00,57.5,57.5,57.5,80,51.3769028915228,3,7,315,0,0,29.902,6,0,0,78.2,47
2015-07-02 20:40:00,57.4,57.4,57.4,80,51.2795855677773,3,8,315,0,0,29.909,5,0,0,78.2,47
2015-07-02 20:45:00,57.3,57.3,57.3,79,50.8423205418039,2,8,270,0,0,29.912,3,0,0,78.2,47
2015-07-02 20:50:00,57.3,57.3,57.3,79,50.8423205418039,3,7,270,0,0,29.914,0,0,0,78.2,47
2015-07-02 20:55:00,57.3,57.3,57.3,79,50.8423205418039,2,7,270,0,0,29.916,0,0,0,78.2,47
2015-07-02 21:00:00,57.2,57.2,57.2,79,50.7451499950085,1,6,315,0,0,29.919,0,0.001,0,78.2,47
2015-07-02 21:05:00,57.2,57.2,57.2,80,51.0849491807637,2,6,225,0,0,29.925,0,0,0,78.2,47
2015-07-02 21:10:00,57.1,57.1,57.1,80,50.9876301174853,1,6,225,0,0,29.924,0,0,0,78.2,47
2015-07-02 21:15:00,57.1,57.1,57.1,80,50.9876301174853,3,7,315,0,0,29.927,0,0,0,78.2,46
2015-07-02 21:20:00,57,57,57,80,50.8903104743523,2,7,315,0,0,29.927,0,0,0,78.2,46
2015-07-02 21:25:00,56.9,56.9,56.9,81,51.1286369724651,1,5,292.5,0,0,29.928,0,0,0,78.2,46
2015-07-02 21:30:00,56.9,56.9,56.9,81,51.1286369724651,1,5,315,0,0,29.928,0,0,0,78.2,46
2015-07-02 21:35:00,56.8,56.8,56.8,81,51.0311698631072,1,5,315,0,0,29.929,0,0,0,78.2,46
2015-07-02 21:40:00,56.7,56.7,56.7,81,50.9337022049258,0,2,0,0,0,29.932,0,0,0,78.2,46
2015-07-02 21:45:00,56.6,56.6,56.6,81,50.836233997916,1,5,315,0,0,29.931,0,0,0,78.2,47
2015-07-02 21:50:00,56.5,56.5,56.5,82,51.0702099163325,1,5,315,0,0,29.932,0,0,0,78.2,47